(295039) = 2008 EP93

Discovered at Mount Lemmon on 2008-03-01 by Mt. Lemmon Survey.

Orbit

Orbit type: Main Belt

Note: WebGL enabled browser required.

epoch2024-03-31.0
epoch JD2460400.5
perihelion date2022-08-24.06549
perihelion JD2459815.56549
argument of perihelion (°)248.42541
ascending node (°)97.46093
inclination (°)15.27746
eccentricity0.1751192
perihelion distance (AU)2.0807731
Tisserand w.r.t. Jupiter3.4
ΔV w.r.t. Earth (km/sec)10.2
semimajor axis (AU)2.5225137
mean anomaly (°)143.90000
mean daily motion (°/day)0.24601040
aphelion distance (AU)2.964
period (years)4.01
P-vector [x]0.93722912
P-vector [y]-0.13017108
P-vector [z]-0.32350746
Q-vector [x]0.23096173
Q-vector [y]0.92677931
Q-vector [z]0.29620396
absolute magnitude16.25
phase slope0.15
uncertainty0
referenceMPEC 2024-E109
observations used514
oppositions15
arc length (days)7354
first opposition used2004
last opposition used2024
residual rms (arc-secs)0.68
perturbers coarse indicatorM-v
perturbers precise indicator003Ek
first observation date used2004-01-17.0
last observation date used2024-03-06.0
computer nameMPCLINUX
JD of orbit computation2456966.744480
perihelion JD uncertainty (days)4.5311E-05
argument of perihelion uncertainty (°)3.3505E-05
ascending node uncertainty (°)3.1509E-05
inclination uncertainty (°)3.8317E-06
eccentricity uncertainty 8.4855E-08
perihelion distance uncertainty (AU)2.1776E-07
Minimum Orbit Intersection Distances (in AU)
for orbit epoch: 2460400.5, reference: E2024-EA9
Mercury1.6911
Venus1.37208
Earth1.1239
Mars0.76752
Jupiter2.4931
Saturn6.3266
Uranus15.5677
Neptune27.4077

Observations

523 total observations over interval: 2004 01 17.25053 – 2024 03 06.448326
These data are available for download (format description).

Date (UT) J2000 RA J2000 Dec Magn Location Ref
2004 01 17.25053 09 22 05.23 +27 44 55.5 19.7   644 – Palomar Mountain/NEAT MPS 258032
2004 01 17.33753 09 22 00.66 +27 45 45.2 20.4   644 – Palomar Mountain/NEAT MPS 258032
2004 01 17.40309 09 21 57.22 +27 46 21.8 19.5   644 – Palomar Mountain/NEAT MPS 258032
2006 09 16.67667 00 59 56.79 -24 15 48.0 19.2 V E12 – Siding Spring Survey MPS 258032
2006 09 16.68729 00 59 56.40 -24 15 53.9 18.7 V E12 – Siding Spring Survey MPS 258032
2006 09 16.69793 00 59 55.89 -24 15 59.9 19.3 V E12 – Siding Spring Survey MPS 258032
2006 09 16.70860 00 59 55.46 -24 16 04.9 19.3 V E12 – Siding Spring Survey MPS 258032
2006 10 03.53792 00 46 03.43 -25 51 38.0 18.9 V E12 – Siding Spring Survey MPS 258032
2006 10 03.54776 00 46 02.85 -25 51 40.5 19.4 V E12 – Siding Spring Survey MPS 258032
2006 10 03.55735 00 46 02.31 -25 51 41.3 19.7 V E12 – Siding Spring Survey MPS 258032
2006 10 03.56669 00 46 01.77 -25 51 43.2 19.0 V E12 – Siding Spring Survey MPS 258032
2006 10 12.56034 00 38 18.49 -25 56 45.3 18.5 V E12 – Siding Spring Survey MPS 258032
2006 10 12.56898 00 38 18.02 -25 56 44.8 18.6 V E12 – Siding Spring Survey MPS 258032
2006 10 12.57760 00 38 17.66 -25 56 43.4 19.0 V E12 – Siding Spring Survey MPS 258032
2006 10 12.58618 00 38 17.12 -25 56 43.1 18.9 V E12 – Siding Spring Survey MPS 258032
2007 12 19.40756 09 32 57.66 +23 40 06.6 20.7 V G96 – Mt. Lemmon Survey MPS 258032
2007 12 19.41349 09 32 57.66 +23 40 08.9 20.9 V G96 – Mt. Lemmon Survey MPS 258032
2007 12 19.41943 09 32 57.58 +23 40 11.5 21.1 V G96 – Mt. Lemmon Survey MPS 258032
2007 12 19.42535 09 32 57.51 +23 40 14.7 20.9 V G96 – Mt. Lemmon Survey MPS 258032
2008 01 19.37376 09 16 08.97 +28 13 43.8 20.0 V G96 – Mt. Lemmon Survey MPS 258032
2008 01 19.37755 09 16 08.72 +28 13 46.3 19.9 V G96 – Mt. Lemmon Survey MPS 258032
2008 01 19.38145 09 16 08.54 +28 13 48.2 20.2 V G96 – Mt. Lemmon Survey MPS 258032
2008 03 01.40458 08 37 23.34 +32 27 11.1 21.2 V G96 – Mt. Lemmon Survey MPS 244152
2008 03 01.40880 08 37 23.19 +32 27 11.7 21.3 V G96 – Mt. Lemmon Survey MPS 244152
2008 03 01.41301 08 37 22.98 +32 27 11.8 21.3 V G96 – Mt. Lemmon Survey MPS 244152
2008 03 01.41721 08 37 22.87 +32 27 12.6 21.5 V G96 – Mt. Lemmon Survey MPS 244152
2008 03 03.26159 08 36 16.81 +32 30 27.7 21.3 V G96 – Mt. Lemmon Survey MPS 244152
2008 03 03.26504 08 36 16.63 +32 30 28.7 22.4 V G96 – Mt. Lemmon Survey MPS 244152
2008 03 03.26854 08 36 16.56 +32 30 29.6 21.8 V G96 – Mt. Lemmon Survey MPS 244152
2008 03 03.27205 08 36 16.41 +32 30 29.4 21.5 V G96 – Mt. Lemmon Survey MPS 244152
2009 04 20.38764 14 35 28.14 +07 27 59.1 20.2 V 703 – Catalina Sky Survey MPS 284477
2009 04 20.39488 14 35 27.81 +07 28 00.5 21.0 V 703 – Catalina Sky Survey MPS 284477
2009 04 20.40208 14 35 27.38 +07 28 01.3 20.2 V 703 – Catalina Sky Survey MPS 284477
2009 04 20.40933 14 35 26.91 +07 28 03.8 20.0 V 703 – Catalina Sky Survey MPS 284477
2010 06 14.542559 23 54 43.174 -14 26 13.31   C51 – WISE MPS 903963
2010 06 14.542686 23 54 43.006 -14 26 12.95   C51 – WISE MPS 903963
2010 06 14.608775 23 54 49.608 -14 26 13.06   C51 – WISE MPS 903963
2010 06 14.674991 23 54 55.886 -14 26 06.94   C51 – WISE MPS 903963
2010 06 14.741079 23 55 02.232 -14 26 04.85   C51 – WISE MPS 903963
2010 06 15.005686 23 55 27.619 -14 25 52.10   C51 – WISE MPS 903963
2010 06 15.137991 23 55 40.409 -14 25 46.74   C51 – WISE MPS 903963
2010 06 15.534902 23 56 18.492 -14 25 33.53   C51 – WISE MPS 903963
2010 06 15.667205 23 56 31.118 -14 25 25.57   C51 – WISE MPS 903963
2010 09 18.457457 00 51 43.771 -25 17 36.23 19.62 i F51 – Pan-STARRS 1, Haleakala MPS 365731
2010 09 18.468882 00 51 43.221 -25 17 41.56 19.68 i F51 – Pan-STARRS 1, Haleakala MPS 365731
2010 10 12.387250 00 31 35.231 -26 35 41.80 19.69 r F51 – Pan-STARRS 1, Haleakala MPS 365731
2010 10 12.389077 00 31 35.224 -26 35 41.12 18.99 r F51 – Pan-STARRS 1, Haleakala MPS 365731
2010 10 12.398289 00 31 34.681 -26 35 40.15 19.62 r F51 – Pan-STARRS 1, Haleakala MPS 365731
2010 10 12.400115 00 31 34.663 -26 35 40.06 19.01 r F51 – Pan-STARRS 1, Haleakala MPS 365731
2010 10 22.351897 00 24 42.341 -25 58 22.51 18.75 i F51 – Pan-STARRS 1, Haleakala MPS 365731
2010 10 22.362752 00 24 41.931 -25 58 18.80 18.78 i F51 – Pan-STARRS 1, Haleakala MPS 365731
2012 01 19.57587 09 12 34.386 +28 20 50.93 20.1 r F51 – Pan-STARRS 1, Haleakala MPS 410064
2012 01 19.58753 09 12 33.714 +28 20 57.26 20.2 r F51 – Pan-STARRS 1, Haleakala MPS 410064
2012 02 15.33226 08 45 53.438 +31 37 29.33 20.9 g F51 – Pan-STARRS 1, Haleakala MPS 412916
2012 02 15.46586 08 45 45.711 +31 38 08.54 20.4 r F51 – Pan-STARRS 1, Haleakala MPS 412916
2012 02 15.47761 08 45 45.033 +31 38 12.03 20.4 r F51 – Pan-STARRS 1, Haleakala MPS 412916
2013 04 02.57502 14 46 39.746 +06 18 49.30 20.3 i F51 – Pan-STARRS 1, Haleakala MPS 462583
2013 04 02.58656 14 46 39.302 +06 18 53.28 20.3 i F51 – Pan-STARRS 1, Haleakala MPS 462583
2013 04 16.56622 14 35 59.879 +07 32 15.18 20.2 i F51 – Pan-STARRS 1, Haleakala MPS 464920
2013 04 16.57826 14 35 59.231 +07 32 18.27 20.1 i F51 – Pan-STARRS 1, Haleakala MPS 464920
2013 04 30.30227 14 23 17.30 +08 16 36.9 20.0 r I41 – Palomar Mountain--ZTF MPS 466758
2013 04 30.33180 14 23 15.56 +08 16 40.3 20.3 r I41 – Palomar Mountain--ZTF MPS 466758
2013 04 30.36209 14 23 13.78 +08 16 43.4 19.7 r I41 – Palomar Mountain--ZTF MPS 466758
2013 05 02.22060 14 21 28.36 +08 19 50.7 20.5 r I41 – Palomar Mountain--ZTF MPS 466758
2013 05 02.25102 14 21 26.59 +08 19 53.4 20.4 r I41 – Palomar Mountain--ZTF MPS 466758
2013 05 02.28054 14 21 24.84 +08 19 56.2 20.4 r I41 – Palomar Mountain--ZTF MPS 466758
2014 08 03.58206 00 50 35.251 -18 04 02.82 19.3 w F51 – Pan-STARRS 1, Haleakala MPS 526419
2014 08 03.59190 00 50 35.592 -18 04 08.05 19.3 w F51 – Pan-STARRS 1, Haleakala MPS 526419
2014 08 03.60172 00 50 35.932 -18 04 13.37 19.3 w F51 – Pan-STARRS 1, Haleakala MPS 526419
2014 08 03.61154 00 50 36.276 -18 04 18.64 19.3 w F51 – Pan-STARRS 1, Haleakala MPS 526419
2014 08 05.57172 00 51 46.029 -18 22 11.78 19.2 w F51 – Pan-STARRS 1, Haleakala MPS 526419
2014 08 05.58162 00 51 46.347 -18 22 17.32 19.2 w F51 – Pan-STARRS 1, Haleakala MPS 526419
2014 08 05.59149 00 51 46.647 -18 22 22.83 19.2 w F51 – Pan-STARRS 1, Haleakala MPS 526419
2014 08 05.60137 00 51 46.954 -18 22 28.36 19.2 w F51 – Pan-STARRS 1, Haleakala MPS 526419
2014 08 26.51737 00 56 28.946 -22 05 08.17 18.9 w F51 – Pan-STARRS 1, Haleakala MPS 529482
2014 08 26.52872 00 56 28.822 -22 05 15.97 18.9 w F51 – Pan-STARRS 1, Haleakala MPS 529482
2014 08 26.54005 00 56 28.697 -22 05 23.68 18.9 w F51 – Pan-STARRS 1, Haleakala MPS 529482
2014 08 26.55139 00 56 28.573 -22 05 31.42 18.9 w F51 – Pan-STARRS 1, Haleakala MPS 529482
2014 08 31.49691 00 55 24.725 -23 01 23.93 19.2 w F51 – Pan-STARRS 1, Haleakala MPS 531247
2014 08 31.50828 00 55 24.488 -23 01 31.65 19.2 w F51 – Pan-STARRS 1, Haleakala MPS 531247
2014 08 31.51918 00 55 24.259 -23 01 38.92 19.2 w F51 – Pan-STARRS 1, Haleakala MPS 531247
2014 08 31.53005 00 55 24.031 -23 01 46.23 19.2 w F51 – Pan-STARRS 1, Haleakala MPS 531247
2014 09 04.53371 00 53 56.676 -23 45 43.16 18.9 w F51 – Pan-STARRS 1, Haleakala MPS 531247
2014 09 04.54450 00 53 56.366 -23 45 50.13 18.9 w F51 – Pan-STARRS 1, Haleakala MPS 531247
2014 09 04.56607 00 53 55.747 -23 46 03.94 18.9 w F51 – Pan-STARRS 1, Haleakala MPS 531247
2014 09 16.40918 00 46 56.398 -25 40 13.33 18.5 i F51 – Pan-STARRS 1, Haleakala MPS 532895
2014 09 16.41893 00 46 55.938 -25 40 18.14 18.5 i F51 – Pan-STARRS 1, Haleakala MPS 532895
2014 09 16.42865 00 46 55.480 -25 40 23.07 18.5 i F51 – Pan-STARRS 1, Haleakala MPS 532895
2014 09 16.43837 00 46 55.023 -25 40 27.88 18.5 i F51 – Pan-STARRS 1, Haleakala MPS 532895
2014 10 17.21137 00 21 54.33 -26 52 18.1 20.0 V 703 – Catalina Sky Survey MPS 540268
2014 10 17.21637 00 21 54.17 -26 52 17.2 19.5 V 703 – Catalina Sky Survey MPS 540268
2014 10 17.22137 00 21 53.95 -26 52 15.8 19.2 V 703 – Catalina Sky Survey MPS 540268
2014 10 17.22638 00 21 53.63 -26 52 15.2 20.4 V 703 – Catalina Sky Survey MPS 540268
2014 10 31.21569 00 15 06.70 -25 20 13.7 19.3 V 703 – Catalina Sky Survey MPS 544028
2014 10 31.22329 00 15 06.56 -25 20 10.1 19.1 V 703 – Catalina Sky Survey MPS 544028
